Regional Weather Roundup
Issued by NWS Sioux Falls, SD

Home | Current Version | Previous Version | Text Only | Print | Product List | Glossary Off
Versions: 1 2 3 4 5 6 7 8 9 10 11 12 13 14 15 16 17 18 19 20 21 22 23 24 25 26 27 28 29 30 31 32 33 34 35 36 37 38 39 40 41 42 43 44 45 46 47 48 49 50

000
ASUS43 KFSD 201810
RWRFSD

WEATHER ROUNDUP FOR SE SOUTH DAKOTA/SW MINNESOTA/NW IOWA
NATIONAL WEATHER SERVICE SIOUX FALLS SD
1200 PM CST SAT DEC 20 2014

NOTE: "FAIR" INDICATES FEW OR NO CLOUDS BELOW 12,000 FEET WITH NO
SIGNIFICANT WEATHER AND OR OBSTRUCTIONS TO VISIBILITY.


SDZ038>040-050-052>070-201900-
SOUTHEAST SOUTH DAKOTA

CITY           SKY/WX    TMP DP  RH WIND       PRES   REMARKS
CHAMBERLAIN    FLURRIES  23  22  96 SE8       29.97S WCI  14
6HR MIN TEMP:  11; 6HR MAX TEMP:  23;

HURON          FOG       27  26  96 SE12      30.00F VSB 3/4 WCI  17
6HR MIN TEMP:  24; 6HR MAX TEMP:  27;

MADISON        CLOUDY    30  30 100 S16       30.03S FOG     WCI  19
MITCHELL       FOG       28  27  96 S12       30.03F VSB 1/2 WCI  18
6HR MIN TEMP:  27; 6HR MAX TEMP:  28; 6HR PCP: TRACE;

SIOUX FALLS    CLOUDY    32  29  88 S10       30.06S WCI  24
6HR MIN TEMP:  31; 6HR MAX TEMP:  32;

WINNER         FAIR      33  23  66 SW9       29.95F WCI  25
YANKTON        CLOUDY    32  28  86 S12       30.06F WCI  23
$$

MNZ071-072-080-081-089-090-097-098-201900-
SOUTHWEST MINNESOTA

CITY           SKY/WX    TMP DP  RH WIND       PRES   REMARKS
FAIRMONT       CLOUDY    30  25  80 S9        30.12F WCI  22
JACKSON        CLOUDY    32  28  86 SW10      30.10F WCI  24
LUVERNE        CLOUDY    32  30  93 S10       30.07F FOG     WCI  24
MARSHALL       CLOUDY    32  27  80 SW15      30.06F WCI  22
6HR MIN TEMP:  30; 6HR MAX TEMP:  32;

MONTEVIDEO     CLOUDY    32  30  93 SW8       30.06F FOG     WCI  25
PIPESTONE      CLOUDY    30  30 100 SW5       30.03F FOG     WCI  25
REDWOOD FALLS  CLOUDY    32  28  85 SW13      30.09F WCI  22
TRACY          CLOUDY    32  30  91 S12       30.06F WCI  23
WINDOM         CLOUDY    30  28  93 S9        30.09F WCI  22
WORTHINGTON    CLOUDY    30  28  93 S12       30.07F WCI  21
$$

IAZ001>003-012>014-020>022-031-032-NEZ013-014-SDZ071-201900-
NORTHWEST IOWA

CITY           SKY/WX    TMP DP  RH WIND       PRES   REMARKS
CHEROKEE       CLOUDY    32  31  98 S8        30.09F FOG     WCI  25
DENISON        CLOUDY    32  32 100 S8        30.08F FOG     WCI  25
ESTHERVILLE    CLOUDY    30  28  92 S8        30.10F WCI  22
LE MARS        CLOUDY    32  30  93 S9        30.09F WCI  24
ORANGE CITY    CLOUDY    32  28  86 S7        30.08S FOG     WCI  26
SHELDON        CLOUDY    30  30 100 S12       30.06F FOG     WCI  21
SIOUX CITY     CLOUDY    33  30  88 S9        30.10F WCI  25
6HR MIN TEMP:  32; 6HR MAX TEMP:  34;

SPENCER        CLOUDY    32  28  85 S8        30.10F WCI  25
6HR MIN TEMP:  29; 6HR MAX TEMP:  32;

STORM LAKE     CLOUDY    30  30 100 S10       30.09F FOG     WCI  21
$$

ABBREVIATIONS USED IN REMARKS
   TC - TEMPERATURE IN CELSIUS
  WCI - WIND CHILL INDEX
   HX - HEAT INDEX
  VSB - VISIBILITY



USA.gov is the U.S. government's official web portal to all federal, state and local government web resources and services.